Find Starlink 6274

NORAD ID: 56776 Int'l Des: 2023-078 Owner: SPXS Country: US Constellation: starlink operational
LEOCIRCULAR

Live Position

Loading 3D Globe...

About Starlink 6274

Description loading...

Upcoming Passes

Passes for default location (London). Set your location on the main map for personalized predictions.

Altitude History

Loading altitude history...

Two-Line Element Set

1 56776U 23078K 26124.53191093 .00000955 00000-0 87808-4 0 9991
2 56776 70.0003 183.8399 0003276 267.6072 92.4712 14.98330274161534
Epoch: May 4, 2026 • Age: 21 hours

Current Status

Altitude 581.0 km
Velocity 7.57 km/s
Sub-Earth Point 49.39°N, 39.03°W
Launch Date May 31, 2023
Age 2.9 years
Type internet

Technical Details

Classification Payload
Mass 305.00 kg
Dry Mass 290.00 kg
Total Mass 305.00 kg
Length 0.20 m
Diameter 2.80 m
Span 9.00 m
Shape Box + pan
Manufacturer SPXS
Bus Type Starlink
Phase Status In Orbit
Owner/State SPXS/US

Most Searched